RH
17 22 32 38 40 34 35 36 34 32 32 33 35 36 36 33 30 25 20 18 17 17 46 49 46 42 47 48 70 64 60 60 75 61 61 65 62 70 74 69 90 85 89 91 96 97 56 83 68 60 74 96 90 98
27 35 34 22 19 20 24 24 21 17 16 15 16 21 27 33 36 34 27 25 21 23 42 60 67 63 54 52 45 52 53 50 48 75 84 91 86 98 87 56 80 69 71 80 67 64 88 100 93 91 90 90 98 97
33 25 21 25 31 15 12 11 11 11 10 8 8 9 8 10 17 28 34 31 27 30 64 76 79 81 77 67 57 46 48 43 47 44 75 91 59 87 80 84 75 69 70 83 72 81 99 100 99 93 92 85 96 90
23 23 31 22 16 9 9 10 11 9 9 8 7 7 8 9 11 14 30 34 35 38 57 88 87 86 81 75 71 66 58 52 61 60 66 94 73 77 87 79 80 70 80 77 85 100 99 99 100 98 100 97 93 87
18 24 26 20 13 10 9 9 10 10 10 11 11 11 16 14 14 21 44 42 39 43 63 89 92 89 89 90 80 75 72 64 60 56 81 76 89 87 97 96 99 87 84 84 74 90 86 97 99 97 93 90 85 80
20 50 48 28 17 12 12 23 30 11 12 16 20 20 19 18 25 31 67 50 41 43 52 83 98 99 100 100 99 95 88 72 64 60 96 99 97 79 100 100 87 100 99 94 92 93 88 99 100 100 93 88 86 84
22 47 77 50 33 22 26 23 20 14 18 22 25 26 24 31 44 41 64 53 44 41 57 85 97 98 98 100 100 95 93 91 78 86 97 100 100 96 98 91 100 100 100 100 100 96 100 100 97 98 95 91 90 88
35 58 63 51 48 39 54 54 42 21 24 26 26 26 35 52 63 63 49 44 43 48 56 93 97 86 98 92 91 95 93 95 88 100 100 96 99 97 100 100 100 100 100 100 99 95 88 94 96 95 96 95 93 89
32 32 33 31 33 42 87 87 67 31 28 25 24 36 56 63 61 63 77 78 75 62 77 82 92 88 97 95 98 96 93 95 99 98 98 95 100 100 98 100 100 100 99 98 98 96 96 95 94 94 94 93 91 88
45 39 38 42 47 54 65 55 46 38 33 23 33 43 65 72 70 66 59 61 63 70 74 100 98 96 98 95 96 95 96 100 94 96 98 91 100 97 100 100 100 100 100 99 96 98 98 97 97 98 97 94 87 84
59 67 67 63 62 65 63 62 78 46 33 36 41 76 76 66 61 51 52 72 78 90 92 100 100 100 99 97 100 100 100 99 99 89 97 100 100 98 99 99 99 99 99 100 100 96 94 90 89 88 84 80 72 62
96 87 78 74 73 76 68 63 55 53 77 68 89 91 82 60 54 64 100 88 92 100 92 99 99 100 100 100 95 94 100 96 100 95 97 100 94 93 97 99 100 100 99 97 94 91 85 83 82 78 72 67 56 44
98 87 80 72 76 78 72 67 47 28 25 80 89 75 63 76 88 98 100 96 98 98 97 94 95 94 95 90 97 100 94 98 96 99 100 98 90 86 90 91 90 91 88 87 89 88 86 84 80 75 68 55 46 40
86 78 76 70 73 71 70 64 32 30 43 74 71 88 96 100 100 98 98 98 96 96 98 100 98 93 99 94 100 98 95 96 100 100 100 99 93 80 82 83 80 82 86 89 91 92 91 90 89 88 78 57 44 43
82 78 75 76 76 72 68 47 47 58 77 86 70 100 99 97 97 97 98 97 99 100 100 100 97 98 100 99 99 97 97 100 96 98 98 96 96 96 81 68 72 79 88 92 97 97 97 97 97 96 84 58 46 44
88 85 78 86 81 70 64 36 61 84 94 92 88 93 100 96 94 99 99 99 100 96 100 99 100 100 100 100 98 100 99 100 96 97 96 96 96 71 45 43 47 55 64 75 86 93 98 98 96 89 79 56 46 42
94 98 96 90 78 71 47 48 75 79 88 94 100 99 99 98 97 99 100 98 98 98 100 100 100 99 97 100 100 97 96 94 95 96 96 84 56 44 41 40 34 32 35 48 77 87 80 73 74 70 64 49 47 46
90 99 99 89 83 65 39 65 85 86 89 97 92 97 100 99 100 100 99 98 97 99 100 100 97 100 100 100 99 97 96 96 96 94 62 40 46 49 48 48 43 33 35 41 45 48 49 49 51 51 51 48 48 47
96 98 99 92 76 43 46 74 80 87 93 95 95 95 95 98 98 99 99 98 98 100 100 100 100 100 100 96 96 95 96 96 96 66 44 39 45 50 53 56 48 39 40 44 46 47 47 46 46 48 48 50 49 49
90 94 90 80 52 34 49 71 77 92 94 91 93 91 94 95 92 96 97 96 90 96 100 100 100 89 88 92 81 75 80 91 92 80 47 45 50 54 60 66 60 47 41 42 44 47 48 52 55 58 59 60 60 62
68 81 77 44 38 40 45 65 77 78 84 89 94 90 87 90 92 95 96 81 62 97 100 90 72 59 55 51 51 59 72 83 78 62 54 57 64 65 69 77 79 69 47 43 44 49 53 54 55 54 54 56 59 62
71 58 40 44 41 42 58 70 62 68 70 84 90 86 88 95 99 93 64 51 90 82 77 55 47 42 39 37 34 36 40 44 50 55 60 66 75 83 84 85 84 78 74 67 58 53 52 52 55 61 69 73 78 82
33 36 40 42 41 45 48 64 70 77 71 76 68 77 87 81 83 56 58 48 50 51 54 46 44 42 39 34 36 40 44 52 56 58 65 71 74 77 76 74 79 81 78 70 78 77 74 74 75 79 80 85 90 92
35 35 37 33 26 50 45 69 73 68 62 77 84 64 60 62 61 66 73 51 50 50 50 52 50 45 43 41 42 44 47 53 59 64 70 72 65 61 64 68 74 79 88 85 84 86 90 91 92 94 97 98 98 100
24 27 24 26 30 31 61 65 52 64 65 74 57 66 68 81 86 86 71 40 41 48 54 56 55 50 45 42 41 46 50 54 61 67 63 62 65 66 67 66 65 61 73 90 96 99 96 98 100 100 100 100 97 95
21 27 22 27 33 43 65 54 67 49 81 75 80 61 94 93 76 68 70 31 30 37 44 46 53 54 51 46 40 45 48 53 57 60 67 74 79 81 83 81 82 78 83 82 96 100 100 100 100 98 99 97 99 100
18 34 28 30 36 38 52 67 78 83 73 75 82 84 100 99 100 74 42 37 33 36 39 45 56 55 53 51 40 44 49 54 57 62 69 76 80 85 88 83 88 86 100 100 100 99 99 98 100 100 100 96 90 91
16 19 43 39 44 50 55 72 78 76 78 49 71 93 88 84 74 33 38 43 46 47 48 50 53 55 57 56 49 48 56 62 67 74 82 83 87 81 73 80 96 100 100 100 100 100 100 100 99 96 93 89 89 95
24 26 28 42 53 60 59 63 52 37 37 40 78 86 54 38 39 43 46 49 51 53 57 56 57 61 63 64 63 58 58 67 73 73 80 92 87 84 96 99 97 80 80 86 88 99 100 100 100 100 100 100 100 99
29 32 43 60 66 70 48 46 42 40 45 52 60 61 57 51 52 54 57 50 47 50 53 55 58 63 66 65 62 62 65 71 84 91 95 92 80 81 88 85 74 74 95 98 93 85 85 95 96 98 98 98 99 100
37 46 54 64 59 50 50 51 50 50 57 60 65 72 69 64 57 62 50 44 41 45 55 66 75 88 96 98 94 90 82 74 81 81 77 82 94 96 88 79 93 95 96 100 100 100 100 100 98 96 92 92 94 100
50 61 68 73 54 56 55 56 56 56 64 72 69 77 81 87 73 64 73 54 58 79 100 100 94 87 80 70 67 71 74 79 81 84 95 98 98 93 96 100 97 100 100 100 100 99 92 95 97 98 100 100 100 100
68 78 78 72 64 59 63 60 66 72 76 81 92 96 98 88 71 62 89 97 99 97 91 87 81 66 57 64 74 79 85 88 88 100 100 100 100 100 100 93 100 100 100 100 99 100 100 100 100 100 100 100 100 100
Wind_Speed
14 15 16 16 18 19 20 20 21 20 20 20 20 21 20 20 19 17 11 13 8 4 2 4 3 3 2 3 3 7 5 1 3 2 3 3 3 4 3 4 6 7 7 4 3 2 8 5 5 6 2 7 13 14
14 15 16 17 19 20 20 21 22 23 23 24 23 22 22 20 18 16 13 14 11 3 1 2 3 3 4 3 2 12 2 4 8 3 1 3 2 1 2 3 1 1 5 5 8 5 1 3 3 5 5 13 12 16
17 18 19 20 20 21 21 23 24 24 25 26 26 26 25 23 22 20 16 13 9 2 2 3 2 2 1 3 5 3 3 5 4 3 6 2 2 3 3 5 1 3 3 2 3 2 3 5 5 6 8 12 12 12
16 18 19 19 21 22 23 23 24 25 25 26 27 28 28 27 25 21 16 14 6 3 2 1 2 2 2 2 3 5 2 5 5 5 3 3 2 3 2 2 3 3 5 4 2 2 1 6 6 9 11 12 12 11
16 17 18 19 22 24 25 25 25 26 28 29 31 31 29 28 24 18 12 8 6 2 1 3 3 7 4 5 0 2 4 4 3 2 2 2 3 3 2 2 2 3 4 4 4 4 2 3 14 11 12 12 10 8
15 17 18 21 23 25 26 26 26 29 29 29 30 31 31 32 21 12 2 1 10 7 1 2 1 6 6 5 6 4 3 3 2 2 2 3 2 1 3 3 0 3 3 1 3 6 4 13 14 12 10 8 6 5
16 17 18 22 26 27 27 28 29 31 29 28 29 29 30 28 15 3 5 12 10 7 2 3 2 4 6 5 4 4 2 2 2 3 3 3 2 2 2 3 3 6 7 8 11 12 9 11 6 9 7 6 6 5
17 17 19 24 26 29 29 28 30 31 30 30 29 27 23 10 6 2 11 15 8 2 2 3 2 3 5 4 3 4 2 1 4 3 2 2 3 2 2 2 6 7 9 7 5 2 5 9 10 9 7 6 5 4
20 22 25 27 27 25 24 27 30 32 32 29 26 19 7 3 6 15 10 6 9 5 4 4 2 2 4 4 3 1 2 3 2 1 0 2 1 2 3 1 7 9 3 10 10 10 10 8 7 6 6 5 4 3
22 25 26 26 26 24 24 29 31 32 30 25 13 5 2 13 14 7 3 3 4 7 7 3 5 2 3 2 2 3 3 1 1 2 2 0 2 2 2 5 7 6 10 9 8 5 5 5 5 5 3 2 2 2
23 25 26 27 25 26 28 29 30 32 27 20 12 5 15 13 5 3 4 7 7 5 7 6 7 2 5 2 1 4 1 1 2 3 2 2 3 2 4 8 9 9 9 6 2 1 2 2 3 3 2 2 4 4
23 25 27 26 23 26 29 31 30 28 21 18 13 13 7 6 4 6 1 4 5 1 8 4 6 5 3 3 1 3 2 3 2 4 3 3 3 1 6 7 7 5 4 3 2 1 1 1 1 2 3 5 6 7
20 24 25 25 24 25 29 33 32 26 19 6 4 4 7 8 9 6 5 4 3 8 8 8 3 6 3 4 4 3 1 2 2 3 2 3 3 3 6 4 3 2 2 2 2 3 3 4 4 5 6 8 9 9
19 21 21 22 23 26 30 34 31 16 5 4 6 6 4 4 1 3 3 2 3 6 12 12 6 6 4 4 0 3 2 2 3 2 2 2 5 5 3 1 1 2 3 5 5 6 7 6 6 8 9 10 11 12
18 19 18 20 24 28 30 32 19 10 4 4 4 2 2 1 1 1 2 3 4 8 10 5 3 4 3 2 2 3 5 2 2 2 1 3 6 5 5 4 5 6 7 7 8 9 9 10 10 11 12 13 13 14
17 19 15 21 24 28 30 23 10 6 4 4 4 4 1 1 2 0 3 3 6 9 6 2 1 3 2 1 3 3 3 3 1 1 5 4 4 5 6 8 9 9 9 10 10 10 10 11 12 14 14 13 14 14
12 12 19 21 24 26 25 11 4 4 3 2 2 3 1 1 3 3 5 4 8 6 1 2 3 5 0 3 3 1 1 0 5 5 3 3 3 6 9 11 13 13 12 11 11 11 12 13 14 15 14 10 14 14
13 15 17 20 23 25 11 6 3 2 3 3 2 2 2 4 5 5 4 5 4 3 2 1 3 2 3 3 1 0 1 1 2 2 2 3 4 5 8 10 12 13 12 12 12 11 11 11 12 12 13 12 15 15
14 16 16 18 20 16 3 4 3 2 1 1 3 5 5 6 8 8 7 6 6 5 2 2 3 3 2 2 1 3 3 3 4 5 6 7 7 8 9 11 13 13 12 11 10 10 10 10 11 11 12 14 17 17
13 15 16 17 16 4 2 2 3 1 1 1 4 4 5 6 8 8 7 5 4 3 3 2 3 4 4 4 6 8 7 7 8 9 8 7 8 11 11 12 13 15 14 12 11 11 11 11 11 12 15 17 20 21
15 10 14 13 5 0 1 1 2 2 3 3 5 5 4 7 6 3 3 3 4 4 4 5 6 4 2 1 3 4 5 7 8 9 12 14 12 12 11 12 15 16 16 15 15 14 15 17 18 20 22 23 23 24
8 12 8 4 1 1 1 2 3 6 3 4 5 5 5 4 3 1 7 4 4 3 5 7 7 3 1 5 7 7 5 5 5 6 8 10 10 10 11 13 17 19 19 19 18 20 22 22 23 24 26 27 26 26
8 5 2 2 1 2 1 4 2 2 1 4 6 3 2 3 3 6 3 4 4 7 8 10 6 2 4 6 4 1 2 3 5 7 8 8 9 11 14 15 18 21 24 24 23 25 26 25 25 25 27 27 25 24
3 1 1 1 3 0 2 1 2 3 3 4 3 5 4 4 6 1 2 3 4 6 14 10 7 4 5 4 3 1 2 5 7 8 9 10 14 16 17 20 20 20 21 22 22 22 23 23 22 22 22 22 22 23
1 1 1 2 3 2 5 5 6 3 2 1 1 4 3 4 2 2 2 3 5 9 13 13 11 8 7 7 6 6 7 5 4 4 7 11 15 19 23 26 28 29 24 24 24 24 23 22 22 21 20 21 22 22
1 1 2 3 1 1 3 1 2 3 1 3 5 3 2 3 2 5 3 2 4 7 10 11 14 11 11 11 10 12 8 5 3 5 7 12 16 22 28 33 36 37 32 30 27 28 27 24 22 22 22 21 20 21
0 4 4 5 3 2 2 2 2 2 1 4 3 1 3 1 4 4 4 7 8 8 12 13 14 14 15 11 13 16 14 12 12 13 14 18 22 25 29 33 33 33 35 32 28 27 27 27 28 27 27 25 24 22
3 5 3 5 5 4 3 2 3 5 4 4 4 2 5 7 5 9 13 12 11 12 12 12 15 18 15 13 16 19 22 22 20 21 24 28 27 33 37 34 29 32 32 31 29 29 30 29 27 26 24 23 22 21
2 3 3 3 4 4 7 8 6 5 4 8 5 4 7 15 20 19 26 30 30 26 23 21 18 17 17 17 17 21 23 23 24 27 27 33 38 39 35 32 30 32 29 25 22 21 23 24 26 30 30 27 24 22
2 3 3 3 3 4 3 7 6 9 12 13 11 14 21 24 21 23 15 14 13 11 11 11 9 9 11 12 11 11 13 14 14 21 29 35 38 39 35 32 29 25 28 28 28 26 21 24 25 23 21 22 23 24
5 4 4 5 6 5 8 10 15 20 20 14 14 15 18 13 6 5 15 13 11 8 8 9 10 12 13 11 13 17 20 22 28 32 31 34 33 31 30 28 29 33 32 30 31 29 26 23 23 23 23 23 23 22
3 4 2 2 4 7 12 4 6 8 8 4 4 4 5 4 2 5 14 12 15 19 19 16 14 18 23 24 26 27 28 26 26 28 25 25 27 28 29 32 30 28 27 19 24 28 29 26 23 23 24 24 24 24
4 5 5 4 4 3 4 9 4 5 4 3 2 3 2 2 1 2 6 8 8 9 13 19 24 34 34 32 30 27 24 24 23 22 21 21 23 24 23 24 23 23 27 25 25 25 23 22 24 24 23 22 22 21
Wind_Direction
29 20 17 17 16 15 16 15 14 13 11 10 7 5 3 1 359 359 347 354 355 299 206 212 208 179 173 186 152 150 100 233 64 152 156 213 145 220 97 155 177 163 152 183 96 78 276 144 118 166 170 116 156 158
19 16 17 14 16 19 17 14 11 10 8 5 3 3 0 359 358 353 344 341 339 279 147 202 178 179 191 180 187 176 220 169 173 101 122 104 167 73 141 230 40 263 181 179 183 210 122 160 93 138 145 149 148 153
19 18 16 19 16 17 13 9 6 3 360 357 356 354 352 350 350 348 342 338 332 313 98 159 135 121 172 207 199 199 221 179 184 153 150 144 180 127 162 238 140 252 177 142 77 190 155 167 148 156 157 163 156 157
19 18 17 16 13 7 4 3 359 356 354 352 351 349 346 345 343 339 336 338 331 290 133 107 171 172 356 254 227 223 213 179 158 159 110 134 149 185 210 174 148 187 125 163 275 310 145 208 188 162 155 157 157 160
16 14 11 6 3 360 357 356 353 350 350 348 347 345 344 341 339 333 321 355 14 340 111 127 110 21 57 37 321 196 181 178 159 116 82 211 137 114 43 61 273 193 183 166 218 165 127 140 177 166 161 158 163 172
12 9 1 0 359 355 353 353 346 347 348 346 343 339 339 333 341 331 305 347 18 18 327 86 124 44 51 62 51 75 143 165 142 124 115 109 111 79 108 201 155 127 107 111 127 149 132 141 160 167 168 162 165 173
6 2 354 350 350 350 349 346 343 341 345 342 337 333 333 330 352 52 55 331 349 337 264 75 32 49 34 34 40 36 16 71 106 104 72 118 106 135 104 198 107 117 102 103 119 117 114 143 155 161 169 160 154 161
356 353 342 340 342 344 343 343 340 339 345 339 334 329 332 352 27 46 330 331 323 310 356 93 306 39 25 19 24 20 24 75 51 89 81 104 109 51 255 313 147 132 118 121 143 106 118 148 143 150 158 163 171 177
344 343 342 340 339 341 342 339 338 341 342 340 331 325 345 46 357 329 335 58 60 50 83 68 83 298 14 24 1 340 1 42 42 87 38 106 330 219 245 286 156 142 129 130 115 114 121 135 145 162 174 183 188 193
348 347 347 347 344 343 339 342 340 340 342 342 336 327 7 350 341 358 32 43 44 39 42 74 346 329 356 349 25 335 18 63 80 288 357 114 263 271 38 131 147 138 135 133 126 132 152 166 176 184 193 213 233 267
355 356 357 354 350 350 348 347 347 345 348 358 343 336 323 341 4 26 50 42 355 36 18 3 17 332 6 24 302 28 190 353 63 279 108 336 325 317 135 143 149 151 160 163 141 96 142 178 199 206 226 264 275 279
350 352 348 350 348 347 350 348 345 343 337 322 306 306 332 355 19 66 355 348 43 29 350 357 337 337 331 326 90 1 116 40 239 316 66 346 268 16 160 160 159 162 165 167 150 96 354 332 306 284 287 282 284 292
332 337 339 342 340 337 342 343 341 332 330 342 6 346 8 356 36 59 359 336 14 351 3 337 322 336 310 350 68 55 48 232 304 46 217 223 358 125 162 162 156 168 190 223 273 290 289 296 298 295 291 288 291 294
322 331 334 340 340 339 339 339 341 346 343 32 23 16 67 354 16 185 201 223 311 314 336 328 301 8 337 20 141 74 231 43 42 23 241 264 80 86 81 38 337 324 291 284 283 281 281 286 293 301 302 295 293 300
322 323 328 334 340 340 340 340 347 352 61 61 36 52 71 352 232 310 302 304 337 325 325 307 298 344 339 50 55 60 21 314 199 223 203 113 86 62 31 3 341 323 308 303 295 293 292 291 292 301 302 297 297 299
313 318 322 333 336 339 339 341 350 56 64 51 65 77 84 81 350 272 338 318 322 332 316 303 81 37 314 119 34 231 117 241 271 142 129 107 68 22 358 348 339 329 318 311 302 297 292 291 293 295 294 293 293 299
310 313 314 325 335 337 338 347 19 52 73 90 102 101 108 239 249 273 304 298 323 328 308 85 49 233 16 23 337 210 80 113 162 144 126 85 15 343 340 338 331 325 319 307 297 295 295 292 289 291 293 291 288 293
310 310 324 331 335 336 341 15 52 60 79 90 129 173 247 263 275 276 271 294 323 335 316 217 127 78 210 176 200 32 17 238 212 195 189 223 271 318 326 325 323 321 316 311 309 309 305 301 298 303 299 297 285 289
318 320 322 330 332 335 317 1 24 65 110 199 266 271 269 271 279 278 281 284 275 252 267 203 91 195 224 193 167 311 299 286 256 248 250 261 282 300 315 325 326 322 317 311 307 303 302 304 308 309 307 299 295 296
310 314 317 323 331 317 321 344 353 319 268 257 257 259 268 266 279 280 284 273 237 212 189 184 205 194 203 227 276 293 295 282 261 260 273 290 298 307 313 318 324 323 316 308 297 294 295 299 307 308 306 304 302 306
311 312 315 324 333 95 359 319 345 339 299 279 276 288 275 270 268 270 269 281 221 215 224 201 190 184 183 273 303 288 280 277 270 280 292 298 303 313 315 320 323 320 314 305 296 289 289 295 302 302 301 298 298 296
311 314 316 342 30 43 69 34 317 302 286 283 300 295 276 282 285 252 315 239 228 212 196 176 166 159 302 310 307 311 306 299 299 303 306 316 324 331 329 330 325 321 317 311 304 296 293 294 295 295 295 298 297 296
326 329 341 8 19 15 284 322 330 324 25 318 317 323 284 304 315 325 273 239 230 219 194 172 175 212 316 319 316 347 52 61 55 48 47 34 14 355 340 337 331 321 314 308 303 298 297 298 298 295 295 296 296 297
335 321 14 49 27 83 331 349 339 321 331 9 25 304 318 321 328 5 246 257 230 207 188 192 212 250 307 285 237 196 130 109 93 78 51 29 17 13 1 350 343 338 333 321 315 308 304 302 299 294 293 293 295 297
303 350 11 38 21 14 24 354 347 26 273 293 329 297 321 334 20 333 243 274 242 214 205 220 235 255 274 264 231 189 160 145 109 69 28 13 0 352 349 347 347 347 336 323 319 316 314 311 308 302 298 298 300 301
78 239 197 181 200 108 193 337 236 228 183 297 239 293 328 69 36 259 240 256 277 241 228 259 252 255 273 261 231 202 201 207 248 299 331 325 328 329 328 324 324 325 335 328 318 315 310 311 309 306 303 301 296 292
246 244 200 208 206 207 162 210 226 157 234 218 250 17 57 357 255 256 261 287 290 287 296 273 255 275 290 274 239 223 228 240 260 280 297 311 319 322 322 320 313 317 323 321 316 312 308 306 305 302 300 299 299 300
245 204 196 197 216 217 186 148 167 212 229 198 162 218 191 200 234 299 301 299 293 290 282 278 280 283 275 263 251 244 245 256 268 282 294 304 305 317 326 326 314 308 314 312 312 306 304 303 303 305 305 303 303 300
239 244 241 254 229 230 229 206 227 227 221 198 189 241 251 278 292 296 299 301 295 287 278 279 280 270 262 270 266 258 261 268 282 295 303 308 317 322 324 323 322 321 322 323 321 313 307 301 300 302 303 299 298 296
242 261 242 237 200 238 238 220 249 270 274 263 264 276 284 291 304 311 319 326 323 305 275 265 271 272 285 293 294 283 286 296 304 310 313 313 316 319 324 324 325 324 327 325 320 318 313 310 308 307 304 299 296 295
273 251 239 234 249 264 275 288 289 285 281 276 278 272 284 302 334 16 2 3 14 36 63 65 65 63 42 18 350 335 324 315 319 318 316 314 317 321 322 324 324 324 323 321 320 322 323 317 310 307 305 305 302 299
260 226 231 278 272 291 305 298 282 271 281 289 279 285 305 304 332 33 28 48 80 90 77 55 34 8 351 340 335 331 324 322 319 314 318 323 320 319 321 321 316 313 320 330 322 318 315 314 310 306 304 303 302 301
270 269 261 273 292 284 303 323 279 302 271 279 293 307 294 282 231 132 66 67 68 47 15 357 344 337 336 334 332 332 329 324 323 320 314 313 315 315 313 316 332 327 320 319 319 320 320 318 313 312 311 310 307 305